FW0386 Weather Reports


time (UTC)temp
C
wind
direction
speed
KPH
gust
KPH
rain 1hr
cm
rain 24hr
cm
rain mn
cm
humidity
%
barometer
mb
20260507050110 12 253 1.6 9.7 0.00 0.00 0.00 82 1010.0
20260507044602 12 285 1.6 12.9 0.00 0.00 0.00 83 1009.7
20260507043016 12 225 1.6 6.4 0.00 0.00 0.00 83 1009.3
20260507041521 12 228 0.0 4.8 0.00 0.00 0.00 85 1009.4
20260507040045 11 206 0.0 3.2 0.00 0.00 0.00 86 1009.2
20260507034605 11 174 0.0 1.6 0.00 0.00 0.00 87 1009.0
20260507033024 11 136 0.0 1.6 0.00 0.00 0.00 87 1009.0
20260507031516 12 257 0.0 3.2 0.00 0.00 0.00 86 1008.8
20260507030045 11 248 0.0 3.2 0.00 0.00 0.00 87 1008.5
20260507024550 12 264 0.0 1.6 0.00 0.00 0.00 87 1008.4
20260507023008 12 250 0.0 1.6 0.00 0.00 0.00 86 1008.4
20260507021545 12 245 0.0 6.4 0.00 0.00 0.00 86 1008.2
20260507020048 12 242 0.0 6.4 0.00 0.00 0.00 87 1008.3
20260507014559 12 280 1.6 6.4 0.00 0.00 0.00 87 1008.1
20260507013000 12 282 1.6 8.0 0.00 0.00 0.00 87 1007.8
20260507011535 12 262 1.6 4.8 0.00 0.00 0.00 86 1007.9
20260507010047 12 262 0.0 4.8 0.00 0.00 0.00 85 1007.5
20260507004600 12 273 1.6 8.0 0.00 0.00 0.00 85 1007.6
20260507003001 12 238 0.0 4.8 0.00 0.00 0.00 83 1007.6
20260507001517 12 286 0.0 6.4 0.00 0.00 0.00 83 1007.1
20260507000033 12 259 0.0 6.4 0.00 0.00 0.00 83 1007.4
20260506234619 12 281 1.6 6.4 0.00 0.00 0.00 82 1007.4
20260506233048 13 269 0.0 6.4 0.00 0.00 0.00 82 1007.0
20260506231524 13 229 1.6 8.0 0.00 0.00 0.00 80 1007.0
20260506230018 13 240 0.0 8.0 0.00 0.00 0.00 80 1006.8
20260506224535 13 267 0.0 4.8 0.00 0.00 0.00 80 1006.3
20260506223056 13 333 1.6 9.7 0.00 0.00 0.00 79 1005.8
20260506221506 14 290 1.6 8.0 0.00 0.00 0.00 79 1005.4
20260506220035 14 255 1.6 12.9 0.00 0.00 0.00 78 1005.6
20260506214531 15 291 1.6 9.7 0.00 0.00 0.00 78 1005.3
20260506213101 15 288 3.2 19.3 0.00 0.00 0.00 77 1005.0
20260506211516 16 271 4.8 16.1 0.00 0.00 0.00 74 1004.8
20260506210137 16 263 1.6 12.9 0.00 0.00 0.00 69 1004.2
20260506204550 15 126 0.0 8.0 0.00 0.00 0.00 72 1004.1
20260506203051 16 120 0.0 0.0 0.00 0.00 0.00 72 1003.7
20260506201508 16 122 0.0 1.6 0.00 0.00 0.00 70 1003.7
20260506200027 16 146 0.0 1.6 0.00 0.00 0.00 69 1003.8
20260506194553 17 226 1.6 8.0 0.00 0.00 0.00 69 1003.7
20260506193052 17 129 0.0 1.6 0.00 0.00 0.00 68 1003.6
20260506191603 17 117 0.0 3.2 0.00 0.00 0.00 66 1003.4
20260506184546 18 99 1.6 11.3 0.00 0.00 0.00 62 1002.9
20260506183107 18 68 4.8 16.1 0.00 0.00 0.00 61 1002.7
20260506181558 19 96 4.8 11.3 0.00 0.00 0.00 60 1002.9
20260506180007 20 77 3.2 12.9 0.00 0.00 0.00 58 1002.8
20260506174520 20 101 8.0 16.1 0.00 0.00 0.00 58 1002.6
20260506173040 20 122 4.8 16.1 0.00 0.00 0.00 56 1002.5
20260506171554 21 102 8.0 22.5 0.00 0.00 0.00 55 1002.7
20260506170022 21 77 8.0 22.5 0.00 0.00 0.00 55 1002.8
20260506164530 21 63 12.9 25.7 0.00 0.00 0.00 54 1002.9
20260506163037 22 49 4.8 20.9 0.00 0.00 0.00 52 1003.1
20260506161603 22 89 8.0 19.3 0.00 0.00 0.00 53 1003.5
20260506160100 21 113 11.3 29.0 0.00 0.00 0.00 51 1003.6
20260506154522 22 71 11.3 27.4 0.00 0.00 0.00 51 1003.7
20260506153025 22 107 8.0 25.7 0.00 0.00 0.00 51 1003.9
20260506151603 22 154 8.0 20.9 0.00 0.00 0.00 51 1004.3
20260506150021 21 183 6.4 17.7 0.00 0.00 0.00 53 1004.6
20260506144513 21 171 9.7 27.4 0.00 0.00 0.00 53 1004.5
20260506143044 22 153 6.4 19.3 0.00 0.00 0.00 52 1004.8
20260506141557 22 148 6.4 22.5 0.00 0.00 0.00 54 1004.7
20260506140104 21 171 8.0 27.4 0.00 0.00 0.00 54 1005.0
20260506134529 21 46 9.7 20.9 0.00 0.00 0.00 55 1005.1
20260506133042 21 273 6.4 20.9 0.00 0.00 0.00 54 1005.1
20260506131602 21 75 14.5 24.1 0.00 0.00 0.00 55 1005.2
20260506130001 21 107 4.8 22.5 0.00 0.00 0.00 56 1005.5
20260506124522 22 173 6.4 16.1 0.00 0.00 0.00 53 1005.6
20260506123040 21 86 6.4 25.7 0.00 0.00 0.00 53 1006.0
20260506121508 21 110 6.4 20.9 0.00 0.00 0.00 51 1006.0
20260506120041 21 64 6.4 19.3 0.00 0.00 0.00 52 1006.1
20260506114508 21 207 3.2 16.1 0.00 0.00 0.00 51 1006.3
20260506113024 21 208 6.4 24.1 0.00 0.00 0.00 52 1006.3
20260506111546 21 103 8.0 19.3 0.00 0.00 0.00 52 1006.2
20260506110002 20 115 8.0 16.1 0.00 0.00 0.00 53 1006.5
20260506104520 21 82 6.4 14.5 0.00 0.00 0.00 55 1006.5
20260506103032 20 113 3.2 9.7 0.00 0.00 0.00 55 1006.7
20260506101532 20 194 4.8 16.1 0.00 0.00 0.00 55 1007.0
20260506100038 20 240 4.8 12.9 0.00 0.00 0.00 57 1007.0
20260506094552 20 101 8.0 16.1 0.00 0.00 0.00 59 1007.1
20260506093106 20 96 4.8 14.5 0.00 0.00 0.00 60 1007.2
20260506091522 19 203 6.4 14.5 0.00 0.00 0.00 61 1007.3
20260506090042 19 223 8.0 14.5 0.00 0.00 0.00 62 1007.1
20260506084531 18 188 3.2 11.3 0.00 0.00 0.00 64 1007.2
20260506083044 18 103 0.0 9.7 0.00 0.00 0.00 65 1007.2
20260506081540 18 147 1.6 8.0 0.00 0.00 0.00 67 1007.4
20260506073048 17 233 3.2 12.9 0.00 0.00 0.00 68 1007.6
20260506071612 17 247 4.8 8.0 0.00 0.00 0.00 70 1007.6
20260506070104 17 232 1.6 8.0 0.00 0.00 0.00 70 1007.7
20260506061545 16 283 0.0 4.8 0.00 0.00 0.00 73 1007.6